sat.trackr.live / text

‹ back to catalog

FLOCK 4G-36

NORAD 62675 · 2025-009BU

PAYLOAD ACTIVE UNKNOWN

§ Identity

Operator
Country
US
Launch date
2025-01-14
Launch site
AFWTR
Launch vehicle
Mass (kg)
RCS (m²)

Purposes: earth_obs

External: N2YO · Heavens-Above · Gunter

§ Orbital elements

Epoch: 2026-05-24T17:34:42.809952Z

Period
94.19 min
Inclination
97.4014°
Eccentricity
0.0005614
Mean motion
15.28805565 rev/d
Perigee alt
475.5 km
Apogee alt
483.2 km
Semi-major
6,857.5 km
B*
3.1057e-4
RAAN
226.5907°
Arg perigee
59.6157°
Mean anomaly
300.5637°
Rev number
7,531

§ Raw data

FLOCK 4G-361 62675U 25009BU  26144.73243993  .00008624  00000+0  31057-3 0  99972 62675  97.4014 226.5907 0005614  59.6157 300.5637 15.28805565 75318

JSON: /api/v1/satellites/62675 · /tle

For live sub-satellite position, see the globe view (requires WebGL).

§ Visibility from observer

Set your observer location to see the next 7 days of passes ≥ 10°. The values pass through the URL so the page stays shareable.

No JS? Fill the form by hand. The geolocation button needs JavaScript.